Погода в Уфе

Погода в Уфе : погода сейчас, прогноз погоды и архив. Всё, что Вы хотите узнать о погоде в Уфе!

Хотите узнать прогноз погоды в Уфе? Тогда Вам сюда: Погода в Уфе

Поиск расширенной информации на нашем сайте:

Другие новости

Новости СМИ2

Главная страница сайта

Новости сайта

03.07.2017

Напоминаем, что на нашем специализированном сайте Метеоцентр.Азия вы можете получить высокодетализированные автоматические прогнозы погоды по пунктам России, СНГ и мира в авиационном формате (включающие направление и скорость ветра, видимость, явления погоды, количество и форму облачности, нижнюю и верхнюю границу облачности).


Погода в Уфе - сегодня

Время (UTC), дата Ветер
(°,м/с) 
Видим.   Явления Облачность Т
(°С)
Тd
(°С)
f(%) Тe
(°С)
Pmin
(гПа)
dP
(гПа)
Po
(мм)
O2
(г/м3)
Тmin Tmax R s Состояние
почвы
09 26.07.17 250 (З) 10 км  {ливн. осадки}  8/6 1000 м средняя, верхняя 
[Sc|Ac trans|Ci fib]
+21.5 +13.4 60 +28  1005.4  -0.6  745  276           
12 26.07.17 300 (СЗ) 10 км  {ливн. осадки}  9/6 1000 м средняя, верхняя 
[Sc|Ac trans|Ci fib]
+22.5 +13 55 +28  1005.2  -0.2  745  275           
15 26.07.17 210 (ЮЗ) 10 км    9/9 1000 м кучево-дожд. 
[Cb cap]
+18.1 +14.2 78 +28  1005.2  -0.2  745  279    +22.6  0.1     
18 26.07.17 230 (ЮЗ) 10 км  в посл. час ливневой дождь  10/10 600 м кучево-дожд. 
[Cb cap]
+17.2 +14.2 83 +26  1004.8  -0.4  744  279           
21 26.07.17 290 (З) 10 км  {ливн. осадки}  8/6 1000 м средняя, верхняя 
[Sc|Ac trans|Ci fib]
+18.1 +13.8 76 +26  1004.1  -0.6  744  278           
00 27.07.17 320 (СЗ) 10 км  {ливн. осадки}  10/10 1000 м 
[Sc]
+15.9 +13.1 83 +22  1006.3  746  281           
03 27.07.17 330 (СЗ) 10 км    10/10 1000 м 
[Sc]
+15.3 +12 81 +20  1008.6  2.3  747  283  +15.1    0.5    влажная 
06 27.07.17 330 (СЗ) 10 км    6/3 1000 м верхняя 
[Cu hum|Ci fib]
+19.9 +13.3 66 +27  1009.4  2.3  748  278           
09 27.07.17 340 (С) 10 км    8/8 1000 м 
[Cu med, cong]
+22.1 +12.9 56 +27  1010.1  0.8  749  277           
12 27.07.17 010 (С) 10 км    4/4 1000 м 
[Cu med, cong]
+24.3 +13 49 +30  1010.3  0.2  749  275           
15 27.07.17 тихо ()   10 км    ясно 
+24.2 +13 50 +30  1010.9  0.6  749  275    +24.7       
18 27.07.17 230 (ЮЗ) 10 км    ясно 
+16 +13.5 85 +23  1011.8  0.5  750  283           
21 27.07.17 230 (ЮЗ) 10 км    8/0 средняя 
[Ac trans]
+14.2 +12.4 89 +19  1012.5  0.7  750  285           
00 28.07.17 220 (ЮЗ) 10 км    1/0 средняя 
[Ac trans]
+12.6 +11 90 +16  1013.1  0.4  750  287           
03 28.07.17 170 (Ю) 10 км    1/0 верхняя 
[Ci fib]
+17.4 +13.7 79 +25  1013.8  751  282  +12.1        влажная 
06 28.07.17 160 (Ю) 10 км    3/1 1000 м верхняя 
[Cu med, cong|Ci fib]
+24 +16.5 63 +35  1013.8  0.3  751  275           
09 28.07.17 260 (З) 10 км    6/4 1000 м верхняя 
[Cu med, cong|Ci fib]
+26.9 +15.2 49 +36  1013.1  -0.6  751  272           
12 28.07.17 230 (ЮЗ) 10 км    4/1 1000 м верхняя 
[Cu hum|Ci fib]
+28.5 +13.2 39 +34  1012.4  -0.6  750  271           
15 28.07.17 260 (З) 10 км    3/0 верхняя 
[Ci fib]
+27.3 +17.1 54 +40  1011.7  -0.8  750  271    +28.7       
18 28.07.17 220 (ЮЗ) 10 км    3/0 средняя, верхняя 
[Ac trans|Ci fib]
+20.1 +17.2 83 +33  1012.5  0.5  750  278           
21 28.07.17 200 (Ю) 10 км    ясно 
+18.8 +16.3 85 +31  1012.4  0.1  750  279           
00 29.07.17 тихо ()   10 км    1/0 средняя 
[Ac trans]
+17.3 +15 86 +26  1013.1  0.6  751  281           
03 29.07.17 тихо ()   10 км    ясно 
+23.4 +17.8 71 +37  1013.6  0.8  751  275  +16.8        сухая 
06 29.07.17 280 (З) 10 км    1/1 1000 м 
[Cu hum]
+26.9 +19.3 63 +44  1013.9  0.5  752  271           
09 29.07.17 280 (З) 10 км    6/3 1000 м верхняя 
[Cu hum|Ci fib]
+29.2 +18.6 53 +45  1014.2  0.3  752  269           
Время (UTC), дата Ветер
(°,м/с) 
Видим.   Явления Облачность Т
(°С)
Тd
(°С)
f(%) Тe
(°С)
Pmin
(гПа)
dP
(гПа)
Po
(мм)
O2
(г/м3)
Тmin Tmax R s Состояние
почвы

Для получения пояснительной информации подведите курсор к названию столбца.

ПОГОДА в Уфе - архив

Всё, что Вы хотите узнать о погоде в Уфе - удобно и подробно!

Выберите нужную дату (начиная с 1 января 2015* года) и нажмите кнопку "Найти".
Будут отображены архивные сводки погоды по пункту Уфа, начиная с указанной даты.


Отображать данные в формате CSV (для использования в таблицах Excel)


Внимание! Наш архив погоды предназначен исключительно для личного некоммерческого использования в познавательных целях. Если Вам необходимы официальные справки о состоянии погоды (для производственных, юридических, коммерческих и т.п. целей), обращайтесь в органы Росгидромета.

*Примечание: данная дата относится к архиву по метеостанциям СССР (Россия, СНГ, Балтия).
Архив по метеостанциям Зарубежной Европы и Азии (кроме Китая) хранится 10 дней, по другим регионам земного шара (Китай, Африка, Америка, Австралия, Океания) - 1 день.

Уфа - район местоположения метеостанции


Название, широта, долгота, высота метеостанции:
Уфа (город) 54.7°ш. 55.8°д. 104 м над ур. моря [Российская Федерация]

Дополнительная информация

В oтличие oт бoльшинства пoгoдных сайтoв мы публикуем пoдрoбную метеoинфoрмацию в детальнoм прoфессиoнальнoм фoрмате.

Характеристики температуры и влажнoсти вoздуха измеряются на высoте 2 м в тени вдали oт зданий и деревьев.
Скoрoсть ветра измеряется на высoте 10 м (на урoвне рoста челoвека скoрoсть ветра ниже в 1.5-2 раза). Если метеoстанция нахoдится в гoрoде или в лесу, тo скoрoсть ветра занижена на 2-4 м/с пo сравнению с oткрытым местoм. Скoрoсть ветра над акватoриями крупных рек и oзёр, а также на вершинах хoлмoв на 2-5 м/с выше, чем в oбычных услoвиях.
Атмoсфернoе давление в разных тoчках местнoсти мoжет значительнo oтличаться oт давления на метеoстанции, в зависимoсти oт услoвий рельефа (при пoдъёме на 10 м давление пoнижается примернo на 1 мм рт.ст.).